This demonstration page uses our WeatherBlox Daily Observations layout. Learn more.

Left ArrowRight Arrow

41.12389, -100.76542

Hourly Observations for February 27, 2017

Temp ( °F °C ) Dew Point ( °F °C ) Humidity (%) Winds ( mph kmh ) Pressure ( in mb ) Visibility ( mi km ) Precip ( " mm )
12:53 am 00:53 Clear 17 -8.3 10 -12.2 74 74 ESE 3 6 29.96 1015 10 16 0.00 0.00
1:53 am 01:53 Clear 16 -8.9 10 -12.2 77 77 Calm 29.97 1015 10 16 0.00 0.00
2:53 am 02:53 Clear 16 -8.9 10 -12.2 77 77 E 6 9 29.95 1014 10 16 0.00 0.00
3:53 am 03:53 Clear 16 -8.9 10 -12.2 77 77 Calm 29.93 1014 10 16 0.00 0.00
4:53 am 04:53 Clear 16 -8.9 10 -12.2 77 77 Calm 29.94 1014 10 16 0.00 0.00
5:53 am 05:53 Clear 15 -9.4 11 -11.7 84 84 Calm 29.95 1014 10 16 0.00 0.00
6:53 am 06:53 Clear 14 -10 9 -12.8 80 80 SE 5 7 29.96 1014 10 16 0.00 0.00
7:53 am 07:53 Sunny 16 -8.9 11 -11.7 80 80 ESE 3 6 29.95 1014 10 16 0.00 0.00
8:53 am 08:53 Sunny 23 -5 16 -8.9 74 74 ESE 10 17 29.91 1013 10 16 0.00 0.00
9:53 am 09:53 Sunny 31 -0.6 22 -5.6 69 69 SSE 9 15 29.88 1012 10 16 0.00 0.00
10:53 am 10:53 Sunny 42 5.6 26 -3.3 53 53 SW 8 13 29.86 1011 10 16 0.00 0.00
11:53 am 11:53 Sunny 45 7.2 27 -2.8 49 49 S 17 28 29.81 1010 10 16 0.00 0.00
12:53 pm 12:53 Sunny 46 7.8 27 -2.8 47 47 SSW 14 22 29.78 1008 10 16 0.00 0.00
1:53 pm 13:53 Sunny 49 9.4 28 -2.2 44 44 SSW 17 28 29.72 1007 10 16 0.00 0.00
2:53 pm 14:53 Sunny 50 10 27 -2.8 41 41 S 14 22 29.70 1006 10 16 0.00 0.00
3:53 pm 15:53 Sunny 52 11.1 26 -3.3 37 37 S 9 15 29.68 1005 10 16 0.00 0.00
4:53 pm 16:53 Sunny 53 11.7 24 -4.4 32 32 S 12 19 29.66 1004 10 16 0.00 0.00
5:53 pm 17:53 Sunny 50 10 23 -5 35 35 S 7 11 29.67 1005 10 16 0.00 0.00
6:53 pm 18:53 Clear 37 2.8 21 -6.1 52 52 E 8 13 29.68 1005 10 16 0.00 0.00
7:53 pm 19:53 Clear 36 2.2 23 -5 59 59 ESE 10 17 29.65 1004 10 16 0.00 0.00
8:53 pm 20:53 Clear 33 0.6 24 -4.4 70 70 ESE 8 13 29.63 1004 10 16 0.00 0.00
9:53 pm 21:53 Clear 31 -0.6 23 -5 72 72 ESE 9 15 29.60 1003 10 16 0.00 0.00
10:53 pm 22:53 Clear 34 1.1 24 -4.4 67 67 ESE 10 17 29.57 1001 10 16 0.00 0.00
11:53 pm 23:53 Clear 36 2.2 24 -4.4 62 62 NNW 9 15 29.59 1002 10 16 0.00 0.00

Powered by AerisWeather